Weather History for K1V4 - October, 2013

Change the Weather History Date:

Monday, October 28, 2013

  Actual Average Record
Temperature  
Mean Temperature 35 °F 43 °F  
Max Temperature 45 °F 53 °F 76 °F (1971)
Min Temperature 25 °F 33 °F 13 °F (1936)
Degree Days  
Heating Degree Days 30 22  
Month to date heating degree days 425 485  
Since 1 July heating degree days 733 719  
Cooling Degree Days 0 0  
Month to date cooling degree days 0 0  
Year to date cooling degree days 407 432  
Moisture  
Dew Point 27 °F    
Average Humidity 68    
Maximum Humidity 92    
Minimum Humidity 44    
Precipitation  
Precipitation 0.02 in 0.12 in 1.71 in (2006)
Month to date precipitation 1.68 3.51  
Year to date precipitation 30.30 32.66  
Sea Level Pressure  
Sea Level Pressure 30.14 in    
Wind  
Wind Speed - (North)    
Max Wind Speed -    
Max Gust Speed -    
T = Trace of Precipitation, MM = Missing Value Source: NWS Daily Summary

Daily Weather History Graph

Daily Weather History Graph

Search for Another Location

Airport or City:

Trip Planner

Search our weather history database for the weather conditions in past years. The results will help you decide how hot, cold, wet, or windy it might be!

Date:

Astronomy

Oct. 28, 2013 Rise Set
Actual Time 7:20 AM EDT 5:42 PM EDT
Civil Twilight 6:50 AM EDT 6:12 PM EDT
Nautical Twilight 6:16 AM EDT 6:46 PM EDT
Astronomical Twilight 5:42 AM EDT 7:20 PM EDT
Moon 12:57 AM EDT (10/28) 2:35 PM EDT (10/28)
Length of Visible Light 11h 22m
Length of Day
10h 22m
Waning Crescent, 34% of the Moon is Illuminated
Oct 28
Waning Crescent
Nov 3
New
Nov 10
First Quarter
Nov 17
Full
Nov 25
Last Quarter

Hourly Weather History & Observations

Time (EDT) Temp. Dew Point Humidity Pressure Visibility Wind Dir Wind Speed Gust Speed Precip Events Conditions
12:54 AM 32.0 °F 28.0 °F 85% 30.01 in - North - - N/A   Unknown
1:54 AM 30.9 °F 28.0 °F 89% 30.02 in - North - - N/A   Unknown
2:54 AM 30.9 °F 28.0 °F 89% 30.01 in - North - - N/A   Unknown
3:54 AM 30.9 °F 28.0 °F 89% 30.01 in - North - - N/A   Unknown
4:54 AM 32.0 °F 28.9 °F 88% 30.01 in - North - - N/A   Unknown
5:54 AM 33.1 °F 28.9 °F 85% 30.01 in - North - - N/A   Unknown
6:54 AM 33.1 °F 28.9 °F 85% 30.02 in - North - - N/A   Unknown
7:54 AM 37.0 °F 30.0 °F 76% 30.01 in - North - - N/A   Unknown
8:54 AM 39.0 °F 30.9 °F 73% 30.01 in - North - - N/A   Unknown
9:54 AM 41.0 °F 30.9 °F 67% 30.01 in - North - - N/A   Unknown
10:54 AM 43.0 °F 30.9 °F 62% 30.01 in - North - - N/A   Unknown
11:54 AM 44.1 °F 35.1 °F 71% 30.06 in - North - - N/A   Unknown
12:54 PM 42.1 °F 35.1 °F 76% 30.10 in - North - - 0.02 in   Unknown
1:54 PM 43.0 °F 30.9 °F 62% 30.13 in - North - - N/A   Unknown
2:54 PM 45.0 °F 28.0 °F 52% 30.16 in - North - - N/A   Unknown
3:54 PM 43.0 °F 23.0 °F 45% 30.20 in - North - - N/A   Unknown
4:54 PM 41.0 °F 21.0 °F 45% 30.23 in - North - - N/A   Unknown
5:54 PM 39.0 °F 21.0 °F 49% 30.27 in - North - - N/A   Unknown
6:54 PM 37.0 °F 17.1 °F 44% 30.31 in - North - - N/A   Unknown
7:54 PM 32.0 °F 19.9 °F 61% 30.33 in - North - - N/A   Unknown
8:54 PM 28.9 °F 21.0 °F 72% 30.36 in - North - - N/A   Unknown
9:54 PM 28.0 °F 21.9 °F 78% 30.37 in - North - - N/A   Unknown
10:54 PM 27.0 °F 21.0 °F 78% 30.38 in - North - - N/A   Unknown
11:54 PM 26.1 °F 21.0 °F 81% 30.38 in - North - - N/A   Unknown